[[{"header":{"parameterUnit":"m.s-1","parameterCategory":1,"la1":30.2991,"la2":30.254,"lo1":-89.0895,"lo2":-89.0444,"dy":0.0017,"dx":0.0017,"nx":28,"ny":28,"refTime":"2023-09-24T09:00:00:Z","depth":0,"parameterNumber":2,"parameterNumberName":"U-component_of_WINDS"},"data":[0,0,0,0,0,0,0,0,0,0,0,0,0,0,0,0,0,0,0,0,0,0,0,0,0,0,0,0,0,0,0,0,0,0,0,0,0,0,0,0,0,0,0,0,0,0,0,0,0,0,0,0,0,0,0,0,0,0,0.4383,0.4384,0,0.4417,0.4417,0.4418,0.4409,0.4409,0.4408,0.4407,0.4442,0.4443,0.4445,0,0,0,0,0,0,0,0,0,0,0,0,0,0.431,0.4312,0.4383,0.4384,0.4384,0.4417,0.4417,0.4418,0.4409,0.4409,0.4408,0.4407,0.4441,0.4443,0.4445,0,0,0,0,0,0,0,0,0,0,0,0,0,0.4343,0.4312,0.4383,0.4384,0.4384,0.4417,0.4417,0.4418,0.4409,0.4409,0.4408,0.4407,0.4441,0.4443,0.4445,0.4479,0,0,0.4452,0.4453,0,0,0,0,0,0,0,0,0.4341,0.4345,0.4383,0.4384,0.4384,0.4408,0.4404,0.4438,0.441,0.44,0.4407,0.4406,0.4431,0.4434,0.4443,0.448,0.4482,0.4452,0.4454,0.4455,0.4455,0,0,0,0,0,0,0,0.4339,0.4344,0.4397,0.4384,0.4385,0.4382,0.4385,0.4411,0.4421,0.4401,0.44,0.4404,0.4431,0.444,0.4443,0.4482,0.4452,0.4454,0.4456,0.4456,0.4547,0.4548,0,0,0,0,0,0,0.4336,0.4342,0.4395,0.4398,0.436,0.4384,0.4388,0.4401,0.442,0.4422,0.4405,0.4404,0.4437,0.4441,0.4445,0.4483,0.4455,0.4457,0.4458,0.4546,0.4547,0.4548,0,0,0,0,0,0,0.4335,0.4341,0.4394,0.437,0.4376,0.4386,0.4401,0.4402,0.4412,0.4424,0.4425,0.4413,0.4436,0.4441,0.447,0.4484,0.4458,0.446,0.4545,0.4546,0.4548,0.4562,0,0,0,0,0,0,0.4333,0.4341,0.4354,0.437,0.4378,0.4419,0.4402,0.4404,0.4416,0.4414,0.4431,0.4433,0.4436,0.4466,0.4472,0.4487,0.4462,0.4543,0.4545,0.4547,0.4561,0.4564,0.4567,0,0,0,0,0,0.433,0.4357,0.4355,0.4361,0.4395,0.442,0.4424,0.4427,0.4417,0.443,0.4437,0.4433,0.4482,0.4469,0.4476,0.4492,0.4542,0.4545,0.4547,0.4559,0.4564,0.4567,0,0,0,0,0,0,0.4343,0.4359,0.4357,0.439,0.4404,0.4419,0.4435,0.4432,0.4449,0.4447,0.445,0.4454,0.4482,0.449,0.4475,0.4524,0.4511,0.4514,0.4518,0.4522,0.4525,0.4522,0.4463,0,0,0,0,0,0.435,0.4369,0.4383,0.4411,0.4418,0.4425,0.4437,0.4437,0.4452,0.4457,0.4467,0.4481,0.4499,0.4511,0.4529,0.4562,0.4565,0.4576,0.4579,0.4582,0.4585,0.4601,0.4605,0.4556,0.4556,0.4556,0,0,0.4364,0.4375,0.4388,0.4414,0.4424,0.4443,0.443,0.4452,0.4466,0.4461,0.4487,0.4495,0.451,0.454,0.4554,0.4548,0.4599,0.4585,0.4587,0.4588,0.4603,0.4608,0.4612,0.4557,0.4557,0.4557,0,0,0.4399,0.441,0.4434,0.4444,0.446,0.4465,0.4471,0.4486,0.449,0.4517,0.4513,0.453,0.4562,0.4573,0.4582,0.462,0.4615,0.4625,0.4643,0.4658,0.4662,0.4665,0.4676,0.4681,0.4628,0.4628,0.4628,0,0.4414,0.4444,0.4446,0.4468,0.4478,0.4474,0.4497,0.4507,0.4528,0.4536,0.4528,0.4567,0.4578,0.4609,0.4618,0.4627,0.4632,0.4623,0.4661,0.4664,0.4668,0.4678,0.4683,0.4629,0.4629,0.4629,0.4629,0,0.446,0.4481,0.4498,0.4517,0.453,0.4553,0.4558,0.457,0.457,0.4575,0.4601,0.4613,0.4633,0.464,0.4641,0.4671,0.4667,0.466,0.4647,0.4673,0.4683,0.4688,0.4631,0.463,0.463,0.463,0,0,0.4505,0.4525,0.4531,0.4538,0.4555,0.457,0.4592,0.461,0.462,0.4635,0.4651,0.4678,0.4672,0.4683,0.4684,0.4698,0.4724,0.4689,0.469,0.4693,0.4756,0.4759,0.4764,0.4721,0.4722,0.4723,0.4754,0,0.454,0.4577,0.4579,0.4613,0.463,0.4626,0.4644,0.4656,0.4661,0.4677,0.4682,0.47,0.4692,0.4698,0.4711,0.4718,0.4736,0.4716,0.4736,0.4736,0.473,0.477,0.4774,0.4803,0.4758,0.4759,0.4759,0,0.4585,0.46,0.4635,0.4647,0.4655,0.4671,0.4687,0.4703,0.4715,0.4718,0.4729,0.4728,0.4749,0.4735,0.4763,0.4749,0.4758,0.4762,0.4763,0.4764,0.4748,0.477,0.4812,0.4816,0.4766,0.4765,0.4765,0,0.4611,0.464,0.4664,0.4672,0.4687,0.4698,0.4705,0.4717,0.4727,0.4741,0.4748,0.4764,0.4773,0.4785,0.4788,0.4779,0.4815,0.4803,0.4817,0.4817,0.4824,0.4823,0.4866,0.4832,0.4832,0.4832,0.4832,0,0.4649,0.467,0.4676,0.469,0.4713,0.4716,0.4738,0.4745,0.4755,0.477,0.4768,0.4782,0.4786,0.48,0.4803,0.4824,0.4829,0.4831,0.4831,0.483,0.483,0.4835,0.4832,0.4833,0.4833,0.4833,0.4833,0,0.4681,0.4686,0.4712,0.4724,0.4728,0.4744,0.4754,0.4767,0.4772,0.4791,0.4796,0.4803,0.482,0.4824,0.4845,0.4846,0.4871,0.487,0.4867,0.4866,0.4879,0.4877,0.4926,0.4932,0.4895,0.4896,0.4896,0,0.4704,0.472,0.4734,0.4743,0.4751,0.4767,0.4777,0.4779,0.479,0.4805,0.4816,0.4833,0.4846,0.4873,0.488,0.4895,0.4893,0.4909,0.4896,0.4894,0.4891,0.489,0.489,0.4912,0.4912,0.4912,0.4913,0,0.4744,0.4745,0.4759,0.4774,0.4786,0.4798,0.481,0.4818,0.4822,0.4834,0.4851,0.4861,0.4881,0.4897,0.4912,0.4919,0.4916,0.4917,0.4921,0.4919,0.4915,0.4916,0.4872,0.4915,0.4915,0.4915,0.4915,0.4915,0.4771,0.4784,0.4795,0.481,0.4819,0.483,0.4842,0.4848,0.4862,0.4878,0.4879,0.4897,0.4908,0.4928,0.4935,0.4949,0.4944,0.495,0.4951,0.4952,0.4953,0.4914,0.4952,0.4952,0.4952,0.4952,0.4952,0,0.4808,0.4815,0.4829,0.4845,0.4857,0.4853,0.4865,0.4875,0.4891,0.4901,0.4914,0.4933,0.4948,0.4955,0.497,0.4979,0.4978,0.4983,0.4982,0.4983,0.4957,0.4951,0.4984,0.4984,0.4984,0.4984,0.4984,0.4984,0.4829,0.485,0.4852,0.4877,0.4884,0.4901,0.4908,0.4917,0.4925,0.4946,0.4958,0.4963,0.4972,0.4987,0.5,0.5002,0.5007,0.5012,0.5013,0.4988,0.4985,0.4982,0.4976,0.5013,0.5013,0.5037,0.5037,0.5038]},{"header":{"parameterUnit":"m.s-1","parameterCategory":1,"la1":30.2991,"la2":30.254,"lo1":-89.0895,"lo2":-89.0444,"dy":0.0017,"dx":0.0017,"nx":28,"ny":28,"refTime":"2023-09-24T09:00:00:Z","depth":0,"parameterNumber":3,"parameterNumberName":"V-component_of_WINDS"},"data":[0,0,0,0,0,0,0,0,0,0,0,0,0,0,0,0,0,0,0,0,0,0,0,0,0,0,0,0,0,0,0,0,0,0,0,0,0,0,0,0,0,0,0,0,0,0,0,0,0,0,0,0,0,0,0,0,0,0,3.1611,3.1611,0,3.1608,3.1608,3.1607,3.155,3.1548,3.1547,3.1546,3.1543,3.1544,3.1545,0,0,0,0,0,0,0,0,0,0,0,0,0,3.1566,3.1567,3.1611,3.1611,3.1611,3.1608,3.1608,3.1607,3.155,3.1548,3.1547,3.1545,3.1542,3.1544,3.1545,0,0,0,0,0,0,0,0,0,0,0,0,0,3.1577,3.1568,3.1611,3.1582,3.1579,3.1608,3.1608,3.1607,3.1551,3.1548,3.1546,3.1544,3.1542,3.1544,3.1545,3.1602,0,0,3.1551,3.1552,0,0,0,0,0,0,0,0,3.1576,3.1578,3.1586,3.1584,3.1581,3.1577,3.1591,3.1606,3.1551,3.1561,3.1546,3.1543,3.1556,3.1556,3.1561,3.1602,3.1601,3.1552,3.1553,3.1554,3.1554,0,0,0,0,0,0,0,3.1575,3.1578,3.1609,3.1586,3.1583,3.1568,3.1568,3.1593,3.1571,3.156,3.1556,3.1557,3.1554,3.1559,3.156,3.1601,3.1552,3.1553,3.1554,3.1555,3.1686,3.1688,0,0,0,0,0,0,3.1579,3.1578,3.1609,3.1609,3.1573,3.1571,3.157,3.158,3.1571,3.1567,3.1558,3.1554,3.1557,3.1558,3.156,3.1623,3.1554,3.1555,3.1556,3.1684,3.1687,3.1689,0,0,0,0,0,0,3.1578,3.1582,3.161,3.1592,3.1595,3.1574,3.1586,3.1581,3.1586,3.1569,3.1565,3.1568,3.1555,3.1557,3.1591,3.1622,3.1556,3.1558,3.1681,3.1685,3.1688,3.1751,0,0,0,0,0,0,3.1577,3.1582,3.1603,3.1593,3.1596,3.1641,3.1588,3.1583,3.159,3.1584,3.1577,3.1573,3.1553,3.1589,3.1593,3.1624,3.156,3.1678,3.1683,3.1687,3.1746,3.1756,3.1765,0,0,0,0,0,3.1576,3.1622,3.1605,3.1609,3.1622,3.1643,3.1645,3.1621,3.1593,3.1613,3.1602,3.1574,3.1619,3.1593,3.1597,3.1629,3.1676,3.1681,3.1686,3.1742,3.1754,3.1765,0,0,0,0,0,0,3.1637,3.162,3.1601,3.1645,3.1646,3.1633,3.1659,3.1635,3.1644,3.1638,3.1608,3.1607,3.1645,3.1641,3.1612,3.1682,3.1642,3.1649,3.1683,3.1694,3.1704,3.1703,3.1561,0,0,0,0,0,3.1655,3.1674,3.1658,3.1699,3.17,3.168,3.1688,3.167,3.1669,3.1669,3.1661,3.1661,3.1675,3.1685,3.1697,3.1746,3.1742,3.177,3.1779,3.1787,3.1792,3.1816,3.1827,3.1706,3.1706,3.1706,0,0,3.1694,3.1687,3.1701,3.1711,3.1709,3.1728,3.168,3.1703,3.1717,3.1673,3.1703,3.1698,3.1696,3.1737,3.1755,3.1735,3.1825,3.1794,3.18,3.1801,3.1822,3.1834,3.1844,3.171,3.1709,3.1708,0,0,3.1773,3.1771,3.1803,3.1803,3.18,3.1786,3.1795,3.1785,3.1779,3.181,3.1777,3.1793,3.1818,3.1818,3.1821,3.19,3.1873,3.1905,3.1954,3.1977,3.1986,3.1995,3.2021,3.2031,3.1911,3.1911,3.1911,0,3.1821,3.1849,3.1823,3.1848,3.1852,3.1814,3.1845,3.1846,3.1848,3.1852,3.183,3.186,3.1857,3.1896,3.1915,3.192,3.1927,3.1905,3.1987,3.1995,3.2002,3.2027,3.2037,3.1915,3.1914,3.1914,3.1914,0,3.1907,3.1927,3.1953,3.1955,3.1963,3.1992,3.197,3.1982,3.1963,3.1951,3.1982,3.1977,3.1986,3.1995,3.1977,3.2031,3.2018,3.1993,3.1951,3.2018,3.204,3.205,3.192,3.1919,3.1918,3.1917,0,0,3.2023,3.2011,3.2021,3.202,3.2015,3.2029,3.2056,3.2065,3.2074,3.2078,3.2098,3.212,3.2095,3.2099,3.2081,3.2102,3.2162,3.2073,3.2072,3.2087,3.2219,3.2237,3.2249,3.2145,3.2147,3.2148,3.2219,0,3.2098,3.2141,3.2119,3.2165,3.2182,3.2145,3.2168,3.2167,3.2157,3.2169,3.2158,3.2174,3.2141,3.2143,3.2162,3.2151,3.2188,3.2146,3.2162,3.2163,3.2161,3.2261,3.228,3.2346,3.2228,3.2229,3.223,0,3.2191,3.2196,3.2244,3.2234,3.224,3.2261,3.2266,3.228,3.2278,3.2269,3.2273,3.225,3.2274,3.2236,3.2268,3.224,3.2246,3.2242,3.2244,3.2242,3.2199,3.226,3.2367,3.2376,3.2244,3.2243,3.2242,0,3.2267,3.2288,3.2318,3.2319,3.2309,3.2324,3.2321,3.2317,3.2323,3.2328,3.2332,3.2341,3.2345,3.2352,3.2331,3.2306,3.2366,3.2326,3.2358,3.2359,3.237,3.2369,3.2478,3.2379,3.2379,3.2378,3.2378,0,3.2352,3.2382,3.2352,3.2371,3.2403,3.2377,3.241,3.2402,3.2399,3.2415,3.2385,3.2401,3.2374,3.2387,3.2371,3.2399,3.2402,3.2395,3.239,3.2396,3.2397,3.2398,3.2392,3.2381,3.238,3.238,3.2379,0,3.2442,3.2424,3.2454,3.2442,3.244,3.2464,3.2453,3.2469,3.2457,3.2478,3.2481,3.2463,3.2476,3.2457,3.2469,3.2459,3.2497,3.2486,3.2497,3.2493,3.2525,3.2521,3.2636,3.2649,3.2544,3.2545,3.2546,0,3.2496,3.2518,3.2507,3.2516,3.2514,3.2528,3.2534,3.251,3.2517,3.2516,3.2532,3.2543,3.2551,3.2574,3.2562,3.257,3.2558,3.2598,3.2559,3.2564,3.2556,3.2554,3.2555,3.2605,3.2606,3.2607,3.2608,0,3.2592,3.2582,3.2591,3.2597,3.2605,3.2609,3.2611,3.262,3.2594,3.2604,3.2617,3.2623,3.2635,3.2646,3.2651,3.2648,3.2623,3.2621,3.2628,3.2633,3.2638,3.2633,3.2516,3.2618,3.2617,3.2616,3.2615,3.2615,3.2664,3.2681,3.2676,3.2687,3.2686,3.2688,3.2702,3.2692,3.2702,3.2709,3.2695,3.2711,3.2708,3.2713,3.2712,3.2724,3.2707,3.2718,3.272,3.2723,3.2727,3.2638,3.2725,3.2725,3.2725,3.2724,3.2724,0,3.2756,3.2751,3.2762,3.2765,3.2773,3.275,3.2751,3.276,3.2774,3.2773,3.2781,3.2796,3.2806,3.2794,3.2802,3.2814,3.2803,3.2817,3.2815,3.2814,3.2743,3.2734,3.2826,3.2826,3.2826,3.2826,3.2826,3.2826,3.2805,3.2832,3.2821,3.2846,3.2841,3.2856,3.2858,3.286,3.2859,3.2876,3.2884,3.2877,3.2871,3.2878,3.2887,3.2883,3.2886,3.2904,3.2896,3.2829,3.2819,3.281,3.2801,3.2905,3.2905,3.2965,3.2966,3.2966]}]]